EW7937 Weather Reports


Display with metric or nautical units.
time (UTC)temp
F
wind
direction
speed
MPH
gust
MPH
rain 1hr
in
rain 24hr
in
rain mn
in
humidity
%
barometer
mb
20210728075753 79 292 0.0 6.0 0.00 0.00 0.00 49 1014.8
20210728075253 79 316 0.0 5.0 0.00 0.00 0.00 49 1014.7
20210728074753 80 316 1.0 5.0 0.00 0.00 0.00 49 1014.7
20210728074253 80 305 0.0 2.0 0.00 0.00 0.00 48 1014.8
20210728073752 80 295 0.0 5.0 0.00 0.00 0.00 48 1014.8
20210728073251 80 295 1.0 6.0 0.00 0.00 0.00 48 1014.8
20210728072752 80 317 2.0 7.0 0.00 0.00 0.00 48 1014.7
20210728072252 81 313 1.0 7.0 0.00 0.00 0.00 48 1014.7
20210728071751 81 296 0.0 3.0 0.00 0.00 0.00 47 1014.7
20210728071252 81 296 0.0 5.0 0.00 0.00 0.00 47 1014.6
20210728070752 81 295 1.0 10.0 0.00 0.00 0.00 47 1014.6
20210728070250 82 265 0.0 10.0 0.00 0.00 0.00 47 1014.6
20210728065752 82 295 0.0 7.0 0.00 0.00 0.00 46 1014.5
20210728065251 82 300 1.0 7.0 0.00 0.00 0.00 46 1014.4
20210728064751 82 310 1.0 11.0 0.00 0.00 0.00 46 1014.4
20210728064250 83 299 0.0 11.0 0.00 0.00 0.00 45 1014.5
20210728063752 83 302 0.0 4.0 0.00 0.00 0.00 45 1014.5
20210728063251 83 285 1.0 4.0 0.00 0.00 0.00 44 1014.3
20210728062751 83 305 0.0 4.0 0.00 0.00 0.00 44 1014.2
20210728062250 84 278 0.0 6.0 0.00 0.00 0.00 43 1014.2
20210728061751 84 303 0.0 6.0 0.00 0.00 0.00 41 1014.2
20210728061251 84 285 1.0 9.0 0.00 0.00 0.00 40 1014.1
20210728060749 85 272 1.0 9.0 0.00 0.00 0.00 40 1014.2
20210728060250 85 298 2.0 9.0 0.00 0.00 0.00 39 1014.1
20210728055750 85 292 0.0 5.0 0.00 0.00 0.00 38 1014.1
20210728055252 85 303 1.0 6.0 0.00 0.00 0.00 38 1014.1
20210728054750 86 278 1.0 7.0 0.00 0.00 0.00 38 1014.0
20210728054250 86 268 2.0 12.0 0.00 0.00 0.00 38 1014.0
20210728053750 86 269 1.0 12.0 0.00 0.00 0.00 38 1013.9
20210728053249 86 313 0.0 3.0 0.00 0.00 0.00 37 1013.9
20210728052748 87 268 0.0 12.0 0.00 0.00 0.00 37 1013.8
20210728052249 87 285 0.0 12.0 0.00 0.00 0.00 37 1013.8
20210728051749 87 293 0.0 6.0 0.00 0.00 0.00 37 1013.9
20210728051250 87 300 1.0 6.0 0.00 0.00 0.00 36 1013.7
20210728050749 87 271 0.0 4.0 0.00 0.00 0.00 36 1013.7
20210728050249 88 264 0.0 5.0 0.00 0.00 0.00 37 1013.6
20210728045748 88 307 0.0 5.0 0.00 0.00 0.00 36 1013.5
20210728045250 89 316 0.0 0.0 0.00 0.00 0.00 35 1013.5
20210728044748 89 305 0.0 5.0 0.00 0.00 0.00 36 1013.4
20210728044247 89 313 1.0 5.0 0.00 0.00 0.00 35 1013.4
20210728043749 89 275 0.0 11.0 0.00 0.00 0.00 35 1013.4
20210728043249 89 309 0.0 11.0 0.00 0.00 0.00 35 1013.3
20210728042750 90 306 0.0 2.0 0.00 0.00 0.00 35 1013.2
20210728042247 90 288 0.0 7.0 0.00 0.00 0.00 35 1013.1
20210728041748 90 302 0.0 7.0 0.00 0.00 0.00 35 1013.1
20210728041246 90 296 0.0 5.0 0.00 0.00 0.00 35 1013.0
20210728040749 91 306 0.0 5.0 0.00 0.00 0.00 35 1012.8
20210728040246 91 288 0.0 3.0 0.00 0.00 0.00 35 1012.8
20210728035747 91 295 0.0 3.0 0.00 0.00 0.00 35 1012.8
20210728035247 91 305 0.0 6.0 0.00 0.00 0.00 34 1012.6
20210728034746 92 281 0.0 6.0 0.00 0.00 0.00 34 1012.5
20210728034248 92 302 0.0 4.0 0.00 0.00 0.00 35 1012.5
20210728033747 93 316 1.0 4.0 0.00 0.00 0.00 31 1012.4
20210728033248 94 289 0.0 4.0 0.00 0.00 0.00 31 1012.3
20210728032748 94 298 0.0 3.0 0.00 0.00 0.00 31 1012.3
20210728032247 94 275 0.0 3.0 0.00 0.00 0.00 29 1012.3
20210728031747 95 296 0.0 3.0 0.00 0.00 0.00 29 1012.3
20210728031248 0 0.0 0.0 0.00 0.00 0.00 1012.2
20210728030745 0 0.0 0.0 0.00 0.00 0.00 1012.2
20210728030245 0 0.0 0.0 0.00 0.00 0.00 1012.1
20210728025743 0 0.0 0.0 0.00 0.00 0.00 1012.0
20210728025242 0 0.0 0.0 0.00 0.00 0.00 1011.9
20210728024741 0 0.0 0.0 0.00 0.00 0.00 1011.8
20210728024240 97 306 0.0 1.0 0.00 0.00 0.00 26 1011.9
20210728023740 98 290 0.0 4.0 0.00 0.00 0.00 26 1011.9
20210728023240 98 278 0.0 4.0 0.00 0.00 0.00 25 1011.8
20210728022739 98 271 0.0 12.0 0.00 0.00 0.00 24 1011.8
20210728022241 99 317 0.0 12.0 0.00 0.00 0.00 24 1011.7
20210728021740 99 309 0.0 5.0 0.00 0.00 0.00 24 1011.7
20210728021239 99 285 0.0 12.0 0.00 0.00 0.00 24 1011.7
20210728020738 99 281 2.0 12.0 0.00 0.00 0.00 24 1011.7
20210728020237 100 317 0.0 7.0 0.00 0.00 0.00 24 1011.6
20210728015738 100 323 1.0 7.0 0.00 0.00 0.00 24 1011.6
20210728015237 100 281 0.0 4.0 0.00 0.00 0.00 25 1011.6
20210728014738 100 282 0.0 6.0 0.00 0.00 0.00 24 1011.6
20210728014239 101 279 1.0 6.0 0.00 0.00 0.00 23 1011.6
20210728013738 101 288 1.0 10.0 0.00 0.00 0.00 24 1011.6
20210728013238 101 296 1.0 10.0 0.00 0.00 0.00 24 1011.6
20210728012737 102 316 1.0 10.0 0.00 0.00 0.00 24 1011.6
20210728012237 102 306 0.0 0.0 0.00 0.00 0.00 24 1011.6
20210728011738 0 0.0 0.0 0.00 0.00 0.00 1011.7
20210728011236 0 0.0 0.0 0.00 0.00 0.00 1011.7
20210728010735 0 0.0 0.0 0.00 0.00 0.00 1011.7
20210728010234 0 0.0 0.0 0.00 0.00 0.00 1011.7
20210728005732 0 0.0 0.0 0.00 0.00 0.00 1011.9
20210728005231 0 0.0 0.0 0.00 0.00 0.00 1011.8
20210728004731 0 0.0 0.0 0.00 0.00 0.00 1011.9
20210728004229 0 0.0 0.0 0.00 0.00 0.00 1011.9
20210728003727 0 0.0 0.0 0.00 0.00 0.00 1012.0
20210728003227 0 0.0 0.0 0.00 0.00 0.00 1012.0
20210728002725 0 0.0 0.0 0.00 0.00 0.00 1012.1
20210728002224 0 0.0 0.0 0.00 0.00 0.00 1012.1
20210728001723 0 0.0 0.0 0.00 0.00 0.00 1012.1
20210728001222 0 0.0 0.0 0.00 0.00 0.00 1012.3
20210728000721 0 0.0 0.0 0.00 0.00 0.00 1012.3
20210728000219 0 0.0 0.0 0.00 0.00 0.00 1012.3
20210727235719 0 0.0 0.0 0.00 0.00 0.00 1012.4
20210727235218 0 0.0 0.0 0.00 0.00 0.00 1012.4
20210727234716 0 0.0 0.0 0.00 0.00 0.00 1012.4
20210727234214 0 0.0 0.0 0.00 0.00 0.00 1012.6
20210727233714 0 0.0 0.0 0.00 0.00 0.00 1012.6
20210727233213 0 0.0 0.0 0.00 0.00 0.00 1012.6
20210727232711 0 0.0 0.0 0.00 0.00 0.00 1012.7
20210727232210 0 0.0 0.0 0.00 0.00 0.00 1012.7
20210727231709 0 0.0 0.0 0.00 0.00 0.00 1012.9
20210727231208 0 0.0 0.0 0.00 0.00 0.00 1012.8
20210727230706 0 0.0 0.0 0.00 0.00 0.00 1012.9
20210727230206 0 0.0 0.0 0.00 0.00 0.00 1013.0
20210727225705 0 0.0 0.0 0.00 0.00 0.00 1013.1
20210727225204 0 0.0 0.0 0.00 0.00 0.00 1013.1
20210727224703 0 0.0 0.0 0.00 0.00 0.00 1013.2
20210727224201 0 0.0 0.0 0.00 0.00 0.00 1013.1
20210727223659 0 0.0 0.0 0.00 0.00 0.00 1013.3
20210727223200 0 0.0 0.0 0.00 0.00 0.00 1013.3
20210727222657 0 0.0 0.0 0.00 0.00 0.00 1013.3
20210727222156 0 0.0 0.0 0.00 0.00 0.00 1013.5
20210727221655 0 0.0 0.0 0.00 0.00 0.00 1013.5
20210727221154 0 0.0 0.0 0.00 0.00 0.00 1013.5
20210727220653 0 0.0 0.0 0.00 0.00 0.00 1013.6
20210727220151 0 0.0 0.0 0.00 0.00 0.00 1013.7
20210727215652 0 0.0 0.0 0.00 0.00 0.00 1013.7
20210727215150 0 0.0 0.0 0.00 0.00 0.00 1013.8
20210727214648 0 0.0 0.0 0.00 0.00 0.00 1013.8
20210727214147 0 0.0 0.0 0.00 0.00 0.00 1013.9
20210727213646 0 0.0 0.0 0.00 0.00 0.00 1013.9
20210727213144 0 0.0 0.0 0.00 0.00 0.00 1013.9
20210727212644 0 0.0 0.0 0.00 0.00 0.00 1014.0
20210727212143 0 0.0 0.0 0.00 0.00 0.00 1014.0
20210727211642 0 0.0 0.0 0.00 0.00 0.00 1014.1
20210727211140 0 0.0 0.0 0.00 0.00 0.00 1014.2
20210727210639 0 0.0 0.0 0.00 0.00 0.00 1014.1
20210727210137 0 0.0 0.0 0.00 0.00 0.00 1014.2
20210727205636 0 0.0 0.0 0.00 0.00 0.00 1014.3
20210727205135 0 0.0 0.0 0.00 0.00 0.00 1014.3
20210727204635 0 0.0 0.0 0.00 0.00 0.00 1014.3
20210727204134 0 0.0 0.0 0.00 0.00 0.00 1014.4
20210727203632 0 0.0 0.0 0.00 0.00 0.00 1014.3
20210727203131 0 0.0 0.0 0.00 0.00 0.00 1014.4
20210727202629 0 0.0 0.0 0.00 0.00 0.00 1014.6
20210727202128 0 0.0 0.0 0.00 0.00 0.00 1014.6
20210727201627 0 0.0 0.0 0.00 0.00 0.00 1014.5
20210727201126 0 0.0 0.0 0.00 0.00 0.00 1014.7
20210727200625 0 0.0 0.0 0.00 0.00 0.00 1014.6
20210727200123 0 0.0 0.0 0.00 0.00 0.00 1014.7
20210727195622 0 0.0 0.0 0.00 0.00 0.00 1014.7
20210727195121 0 0.0 0.0 0.00 0.00 0.00 1014.8
20210727194621 0 0.0 0.0 0.00 0.00 0.00 1014.8
20210727194119 0 0.0 0.0 0.00 0.00 0.00 1014.8
20210727193618 0 0.0 0.0 0.00 0.00 0.00 1014.8
20210727193117 0 303 0.0 3.0 0.00 0.00 0.00 1014.9
20210727192617 96 305 0.0 3.0 0.00 0.00 0.00 32 1015.0
20210727192117 96 247 0.0 7.0 0.00 0.00 0.00 34 1015.0
20210727191617 96 283 0.0 7.0 0.00 0.00 0.00 32 1015.1
20210727191117 96 329 1.0 6.0 0.00 0.00 0.00 32 1015.1
20210727190616 96 313 0.0 6.0 0.00 0.00 0.00 32 1015.2
20210727190116 95 257 0.0 6.0 0.00 0.00 0.00 33 1015.3
20210727185615 94 241 0.0 4.0 0.00 0.00 0.00 33 1015.3
20210727185116 95 288 0.0 4.0 0.00 0.00 0.00 34 1015.3
20210727184613 94 300 1.0 3.0 0.00 0.00 0.00 32 1015.3
20210727184114 94 231 0.0 7.0 0.00 0.00 0.00 32 1015.3
20210727183614 94 243 2.0 7.0 0.00 0.00 0.00 33 1015.4
20210727183117 94 268 1.0 5.0 0.00 0.00 0.00 34 1015.4
20210727182615 94 274 1.0 5.0 0.00 0.00 0.00 35 1015.5
20210727182114 93 244 1.0 5.0 0.00 0.00 0.00 37 1015.4
20210727181615 93 286 1.0 3.0 0.00 0.00 0.00 32 1015.4
20210727181116 92 299 1.0 5.0 0.00 0.00 0.00 36 1015.6
20210727180614 92 271 0.0 5.0 0.00 0.00 0.00 33 1015.6
20210727180114 92 224 1.0 3.0 0.00 0.00 0.00 38 1015.6
20210727175614 92 195 1.0 3.0 0.00 0.00 0.00 35 1015.5
20210727175114 92 272 0.0 3.0 0.00 0.00 0.00 36 1015.5
20210727174614 91 257 1.0 3.0 0.00 0.00 0.00 36 1015.5
20210727174115 89 268 1.0 3.0 0.00 0.00 0.00 39 1015.5
20210727173616 89 247 0.0 1.0 0.00 0.00 0.00 40 1015.5
20210727173115 88 217 0.0 4.0 0.00 0.00 0.00 36 1015.5
20210727172614 89 248 0.0 4.0 0.00 0.00 0.00 39 1015.6
20210727172115 89 180 0.0 0.0 0.00 0.00 0.00 38 1015.5
20210727171614 88 213 0.0 0.0 0.00 0.00 0.00 45 1015.5
20210727171114 87 197 0.0 0.0 0.00 0.00 0.00 40 1015.6
20210727170613 87 220 0.0 0.0 0.00 0.00 0.00 44 1015.5
20210727170111 87 212 0.0 0.0 0.00 0.00 0.00 40 1015.5
20210727165612 87 186 0.0 0.0 0.00 0.00 0.00 41 1015.6
20210727165112 86 196 0.0 0.0 0.00 0.00 0.00 41 1015.5
20210727164613 86 195 0.0 0.0 0.00 0.00 0.00 39 1015.5
20210727164113 86 195 0.0 4.0 0.00 0.00 0.00 37 1015.6
20210727163613 85 213 0.0 4.0 0.00 0.00 0.00 40 1015.6
20210727163114 85 203 0.0 3.0 0.00 0.00 0.00 39 1015.6
20210727162612 85 157 0.0 3.0 0.00 0.00 0.00 39 1015.6
20210727162111 85 190 0.0 3.0 0.00 0.00 0.00 37 1015.6
20210727161612 84 219 0.0 0.0 0.00 0.00 0.00 37 1015.6
20210727161113 84 250 0.0 0.0 0.00 0.00 0.00 39 1015.7
20210727160614 83 250 0.0 0.0 0.00 0.00 0.00 38 1015.6
20210727160111 83 250 0.0 0.0 0.00 0.00 0.00 38 1015.7
20210727155610 0 259 0.0 0.0 0.00 0.00 0.00 1015.7
20210727155110 0 0.0 0.0 0.00 0.00 0.00 1015.7
20210727154608 0 0.0 0.0 0.00 0.00 0.00 1015.6
20210727154108 0 0.0 0.0 0.00 0.00 0.00 1015.6
20210727153607 0 0.0 0.0 0.00 0.00 0.00 1015.6
20210727153105 0 0.0 0.0 0.00 0.00 0.00 1015.6
20210727152604 0 0.0 0.0 0.00 0.00 0.00 1015.5
20210727152104 0 0.0 0.0 0.00 0.00 0.00 1015.4
20210727151601 0 0.0 0.0 0.00 0.00 0.00 1015.4
20210727151100 0 0.0 0.0 0.00 0.00 0.00 1015.4
20210727150559 0 0.0 0.0 0.00 0.00 0.00 1015.4
20210727150058 0 0.0 0.0 0.00 0.00 0.00 1015.4
20210727145558 0 0.0 0.0 0.00 0.00 0.00 1015.3
20210727145056 0 0.0 0.0 0.00 0.00 0.00 1015.2
20210727144554 0 0.0 0.0 0.00 0.00 0.00 1015.2
20210727144055 0 0.0 0.0 0.00 0.00 0.00 1015.1
20210727143552 0 0.0 0.0 0.00 0.00 0.00 1015.2
20210727143051 0 0.0 0.0 0.00 0.00 0.00 1015.2
20210727142551 0 0.0 0.0 0.00 0.00 0.00 1015.2
20210727142049 0 0.0 0.0 0.00 0.00 0.00 1015.0
20210727141547 0 0.0 0.0 0.00 0.00 0.00 1015.0
20210727141047 0 0.0 0.0 0.00 0.00 0.00 1015.0
20210727140547 0 0.0 0.0 0.00 0.00 0.00 1015.0
20210727140044 0 0.0 0.0 0.00 0.00 0.00 1015.0
20210727135543 73 247 0.0 0.0 0.00 0.00 0.00 46 1014.9
20210727135043 73 247 0.0 2.0 0.00 0.00 0.00 45 1014.8
20210727134542 73 247 0.0 2.0 0.00 0.00 0.00 45 1014.7
20210727134042 73 245 0.0 0.0 0.00 0.00 0.00 46 1014.6
20210727133540 73 245 0.0 0.0 0.00 0.00 0.00 46 1014.6
20210727133042 73 245 0.0 0.0 0.00 0.00 0.00 46 1014.5
20210727132542 74 245 0.0 0.0 0.00 0.00 0.00 47 1014.5
20210727132043 74 245 0.0 0.0 0.00 0.00 0.00 47 1014.4
20210727131542 74 245 0.0 0.0 0.00 0.00 0.00 49 1014.4
20210727131043 74 245 0.0 0.0 0.00 0.00 0.00 49 1014.4
20210727130541 74 245 0.0 0.0 0.00 0.00 0.00 48 1014.2
20210727130043 75 245 0.0 0.0 0.00 0.00 0.00 50 1014.2
20210727125542 75 245 0.0 0.0 0.00 0.00 0.00 51 1014.1
20210727125040 75 245 0.0 0.0 0.00 0.00 0.00 52 1014.1
20210727124541 75 245 0.0 0.0 0.00 0.00 0.00 53 1014.2
20210727124041 76 245 0.0 0.0 0.00 0.00 0.00 51 1014.1
20210727123540 76 245 0.0 0.0 0.00 0.00 0.00 50 1014.0
20210727123040 76 245 0.0 0.0 0.00 0.00 0.00 50 1014.0
20210727122544 76 245 0.0 0.0 0.00 0.00 0.00 51 1013.9
20210727122040 76 245 0.0 0.0 0.00 0.00 0.00 50 1013.9
20210727121541 76 245 0.0 0.0 0.00 0.00 0.00 49 1013.9
20210727121040 76 245 0.0 0.0 0.00 0.00 0.00 49 1013.8
20210727120540 77 245 0.0 0.0 0.00 0.00 0.00 48 1013.8
20210727120039 77 245 0.0 0.0 0.00 0.00 0.00 48 1013.9
20210727115541 77 245 0.0 0.0 0.00 0.00 0.00 47 1013.8
20210727115039 77 245 0.0 0.0 0.00 0.00 0.00 46 1013.8
20210727114540 77 245 0.0 0.0 0.00 0.00 0.00 46 1013.9
20210727114038 77 245 0.0 0.0 0.00 0.00 0.00 46 1013.8
20210727113540 78 245 0.0 0.0 0.00 0.00 0.00 45 1013.7
20210727113038 78 245 0.0 0.0 0.00 0.00 0.00 45 1013.8
20210727112540 78 245 0.0 0.0 0.00 0.00 0.00 45 1013.7
20210727112038 78 245 0.0 0.0 0.00 0.00 0.00 44 1013.7
20210727111540 78 245 0.0 0.0 0.00 0.00 0.00 43 1013.7
20210727111039 78 245 0.0 0.0 0.00 0.00 0.00 43 1013.7
20210727110540 79 245 0.0 0.0 0.00 0.00 0.00 42 1013.7
20210727110039 79 245 0.0 0.0 0.00 0.00 0.00 41 1013.6
20210727105539 79 245 0.0 0.0 0.00 0.00 0.00 41 1013.6
20210727105039 79 245 0.0 0.0 0.00 0.00 0.00 41 1013.6
20210727104538 79 245 0.0 0.0 0.00 0.00 0.00 40 1013.6
20210727104037 80 245 0.0 0.0 0.00 0.00 0.00 40 1013.6
20210727103538 80 245 0.0 0.0 0.00 0.00 0.00 40 1013.6
20210727103037 80 245 0.0 0.0 0.00 0.00 0.00 40 1013.7
20210727102538 80 245 0.0 0.0 0.00 0.00 0.00 39 1013.7
20210727102037 80 245 0.0 0.0 0.00 0.00 0.00 39 1013.6
20210727101538 80 245 0.0 0.0 0.00 0.00 0.00 38 1013.5
20210727101038 80 245 0.0 0.0 0.00 0.00 0.00 37 1013.5
20210727100538 80 245 0.0 0.0 0.00 0.00 0.00 39 1013.5
20210727100038 80 245 0.0 0.0 0.00 0.00 0.00 39 1013.5
20210727095538 80 245 0.0 0.0 0.00 0.00 0.00 39 1013.5
20210727095038 80 245 0.0 0.0 0.00 0.00 0.00 42 1013.4
20210727094536 80 245 0.0 0.0 0.00 0.00 0.00 43 1013.4
20210727094037 81 206 0.0 0.0 0.00 0.00 0.00 47 1013.4
20210727093538 81 204 0.0 0.0 0.00 0.00 0.00 48 1013.4
20210727093035 81 204 0.0 0.0 0.00 0.00 0.00 52 1013.4
20210727092537 81 204 0.0 0.0 0.00 0.00 0.00 51 1013.4
20210727092036 0 0.0 0.0 0.00 0.00 0.00 1013.5
20210727091536 0 0.0 0.0 0.00 0.00 0.00 1013.4
20210727091034 81 204 0.0 0.0 0.00 0.00 0.00 51 1013.5
20210727090533 82 204 0.0 0.0 0.00 0.00 0.00 51 1013.5
20210727090032 82 204 0.0 0.0 0.00 0.00 0.00 51 1013.5
20210727085533 82 204 0.0 0.0 0.00 0.00 0.00 51 1013.5
20210727085033 82 204 0.0 0.0 0.00 0.00 0.00 51 1013.6
20210727084532 82 204 0.0 0.0 0.00 0.00 0.00 51 1013.6
20210727084033 82 200 0.0 0.0 0.00 0.00 0.00 50 1013.6
20210727083531 82 202 0.0 0.0 0.00 0.00 0.00 50 1013.6
20210727083033 82 212 0.0 0.0 0.00 0.00 0.00 49 1013.7
20210727082533 82 192 0.0 0.0 0.00 0.00 0.00 49 1013.7
20210727082032 82 179 0.0 0.0 0.00 0.00 0.00 48 1013.6
20210727081532 82 179 0.0 0.0 0.00 0.00 0.00 48 1013.6
20210727081033 82 179 0.0 0.0 0.00 0.00 0.00 48 1013.7
20210727080531 82 179 0.0 0.0 0.00 0.00 0.00 49 1013.7
20210727080030 82 161 0.0 1.0 0.00 0.00 0.00 49 1013.6